Regional Weather Roundup
Issued by NWS

Home | Current Version | Previous Version | Graphics & Text | Print | Product List | Glossary Off
Versions: 1 2 3 4 5 6 7 8 9 10 11 12 13 14 15 16 17 18 19 20 21 22 23 24 25 26 27 28 29 30 31 32 33 34 35 36 37 38 39 40 41 42 43 44 45 46 47 48 49 50

000
ASUS43 KMKX 310500
RWRWI

WISCONSIN REGIONAL WEATHER ROUNDUP
NATIONAL WEATHER SERVICE MILWAUKEE/SULLIVAN WI
1200 AM CDT SUN AUG 31 2014

NOTE: "FAIR" INDICATES FEW OR NO CLOUDS BELOW 12,000 FEET WITH NO
SIGNIFICANT WEATHER AND/OR OBSTRUCTIONS TO VISIBILITY.

WIZ001-002-006>008-014>016-023>028-310600-
NORTHWEST WISCONSIN

CITY           SKY/WX    TMP DP  RH WIND       PRES   REMARKS
SUPERIOR ARPT  CLOUDY    60  59  97 CALM      29.91S
ASHLAND        FOG       53  52  96 SW3       29.93F VSB 3/4
HAYWARD        CLOUDY    60  57  89 CALM      29.92F
SIREN          CLOUDY    61  58  92 E5        29.91S
RICE LAKE      CLEAR     58  56  94 CALM      29.93S
LADYSMITH      CLEAR     58  57  96 NE6       29.94S
EAU CLAIRE     NOT AVBL
MENOMONIE      CLEAR     59  59  97 CALM      29.91S
NEW RICHMOND   MOCLDY    61  60  98 CALM      29.90S
OSCEOLA        CLOUDY    64  64 100 SE3       29.92S
$$

WIZ003>005-009-010-017-018-310600-
NORTH CENTRAL WISCONSIN

CITY           SKY/WX    TMP DP  RH WIND       PRES   REMARKS
WOODRUFF       MOCLDY    57  55  95 CALM      29.94R
RHINELANDER    CLOUDY    57  55  93 CALM      29.94S
EAGLE RIVER    CLOUDY    55  55 100 CALM      29.93S
LAND O LAKES   CLOUDY    57  56  95 N7        29.94S
PHILLIPS       CLOUDY    59  56  91 CALM      29.94S
TOMAHAWK       MOCLDY    56  54  92 CALM      29.94R
MEDFORD        PTCLDY    55  55  97 N3        29.93S
MERRILL        MOCLDY    57  57  97 NE3       29.93S
$$

WIZ029-030-035-036-043>047-310600-
CENTRAL WISCONSIN

CITY           SKY/WX    TMP DP  RH WIND       PRES   REMARKS
WAUSAU         CLOUDY    62  58  86 NE3       29.91R
MOSINEE        CLOUDY    63  61  94 CALM      29.92S
MARSHFIELD     CLOUDY    64  60  87 NE5       29.92R
STEVENS POINT  CLOUDY    62  60  93 CALM      29.92S
WAUPACA        CLOUDY    66  64  93 CALM      29.91S
WAUTOMA        CLOUDY    66  64  94 CALM      29.91R
WISC RAPIDS    CLEAR     64  61  90 NE5       29.91F
CAMP DOUGLAS   NOT AVBL
$$

WIZ011>013-019>022-031-037>040-048>050-310600-
NORTHEAST WISCONSIN

CITY           SKY/WX    TMP DP  RH WIND       PRES   REMARKS
ANTIGO         CLOUDY    58  56  94 N6        29.92F
STURGEON BAY   CLOUDY    63  57  82 NW7       29.89R
GREEN BAY      CLOUDY    65  62  90 N7        29.89S
MANITOWOC      NOT AVBL
APPLETON       PTCLDY    61  61 100 NW6       29.91R
CLINTONVILLE   CLOUDY    64  61  88 CALM      29.90R
OSHKOSH        PTCLDY    66  63  90 N5        29.89S
$$

WIZ032>034-041-042-053>061-310600-
SOUTHWEST WISCONSIN

CITY           SKY/WX    TMP DP  RH WIND       PRES   REMARKS
LA CROSSE      PTCLDY    66  63  90 CALM      29.90S
SPARTA         CLOUDY    64  62  93 CALM      29.92S
VIROQUA        FAIR      64  64 100 E3        29.92S
BOSCOBEL       CLEAR     68  65  90 CALM      29.89F FOG
PRAIRIE DU CHI CLEAR     67  64  91 E5        29.89S
PLATTEVILLE    FAIR      66  64  94 CALM      29.92S
$$

WIZ056-057-062-063-064-067-068-310600-
SOUTH CENTRAL WISCONSIN

CITY           SKY/WX    TMP DP  RH WIND       PRES   REMARKS
BARABOO/DELLS  PTCLDY    66  63  89 CALM      29.91S
LONE ROCK      NOT AVBL
WATERTOWN      CLEAR     65  65 100 CALM      29.89S
MADISON        PTCLDY    67  65  93 CALM      29.90S
MIDDLETON      FAIR      67  67  99 CALM      29.90S
MONROE         CLEAR     66  64  94 SW5       29.91S
JANESVILLE     CLEAR     68  64  88 CALM      29.90S
$$

WIZ051-052-058>065-066-070>072-310600-
SOUTHEAST WISCONSIN

CITY           SKY/WX    TMP DP  RH WIND       PRES   REMARKS
MILWAUKEE      PTCLDY    71  66  84 SW5       29.89S
WAUKESHA       PTCLDY    66  64  94 SW6       29.91R
MILWAUKEE/TIMM CLEAR     66  64  94 CALM      29.90R
RACINE         CLEAR     71  65  81 SW5       29.91R
BURLINGTON     CLEAR     62  61  98 SW3       29.90S FOG
KENOSHA        PTCLDY    67  65  93 SW7       29.90S
FOND DU LAC    PTCLDY    65  63  93 N3        29.90S
SHEBOYGAN      CLEAR     63  62  97 SW3       29.89R
WEST BEND      MOCLDY    64  63  94 CALM      29.90R
JUNEAU         MOCLDY    67  65  95 CALM      29.91S
$$

LSZ147-162-310600-
LAKE SUPERIOR

STATION/POSITION TIME  TEMP    WIND        PRES    WAVE
                       AIR SEA DIR/SP/G            HT/PER
                 (UTC) (F)     (DEG/KT/KT) (MB)    (FT/S)
W MID LAKE BUOY  0350   58 58  230/  2/  4 1012.9R   1
DEVILS ISLAND    0400   60     280/  1/  1 1013.3R
PORT WING        0400   61      CALM  /  2 1013.2S
SAXON HARBOR     0400   58        CALM     1013.2S
$$

LMZ867-665-643>646-310600-
LAKE MICHIGAN

STATION/POSITION TIME  TEMP    WIND        PRES    WAVE
                       AIR SEA DIR/SP/G            HT/PER
                 (UTC) (F)     (DEG/KT/KT) (MB)    (FT/S)
N MID LAKE BUOY  0350   63 65  300/ 16/ 19 1010.1R   3/ 4
NORTHPORT PIER   0400   64     310/ 13/ 17 1011.2S
SISTER BAY       0426   64     330/ 14/ 16   N/A
KEWAUNEE LAKESHO 0400   65     340/  5/  8 1011.0R
SHEBOYGAN LAKESH 0400   69 51  330/  5/  6 1011.8R
ATWATER BUOY     0400   67     150/  2/  4 1013.1R
MILWAUKEE LAKESH 0400   73     220/  3/  4   N/A
S MID LAKE BUOY  0350   71 69  220/  8/  8 1012.0R   1/ 4
KENOSHA   LAKESH 0400   73     220/  3/  8 1011.9S
$$

TC  - TEMPERATURE IN CELSIUS
VSB - VISIBILITY IN STATUTE MILES
WCI - WIND CHILL INDEX
HX  - HEAT INDEX



USA.gov is the U.S. government's official web portal to all federal, state and local government web resources and services.